Location: Aulnoy
(48.8410°N, 3.0967°E)
Time: 07:18:52
(UTC+00:00)

Cosmos 1461 - Visible Passes

Search period start: 24 September 2023 00:00
Search period end: 04 October 2023 00:00
Orbit: 491 x 630 km, 65.0° (Epoch: 23 September)

Date Brightness Start Highest point End Pass type
(mag) Time Alt. Az. Time Alt. Az. Time Alt. Az.
24 Sep 5.3 01:58:05 21° E 01:58:05 21° E 02:00:10 10° ENE visible
24 Sep 3.4 03:34:01 45° WNW 03:34:44 49° NW 03:39:09 10° NNE visible
25 Sep 5.3 01:56:53 23° ENE 01:56:53 23° ENE 01:58:52 10° NE visible
25 Sep 3.7 03:32:48 38° WNW 03:33:18 39° NW 03:37:34 10° NNE visible
26 Sep 5.3 01:55:36 23° ENE 01:55:36 23° ENE 01:57:27 10° NE visible
26 Sep 4.1 03:31:30 32° NW 03:31:52 32° NW 03:35:57 10° NNE visible
27 Sep 5.4 01:54:14 22° NE 01:54:14 22° NE 01:55:57 10° NE visible
27 Sep 4.4 03:30:09 26° NW 03:30:25 27° NW 03:34:16 10° NNE visible
28 Sep 5.5 01:52:50 21° NE 01:52:50 21° NE 01:54:23 10° NE visible
28 Sep 4.7 03:28:44 22° NW 03:28:58 22° NNW 03:32:34 10° NNE visible
28 Sep 5.5 05:08:17 10° NNW 05:09:12 10° N 05:10:07 10° N visible
29 Sep 5.6 01:51:22 20° NE 01:51:22 20° NE 01:52:45 10° NE visible
29 Sep 4.9 03:27:16 19° NW 03:27:32 19° NNW 03:30:48 10° NNE visible
29 Sep 5.6 05:07:48 10° N 05:07:52 10° N 05:07:57 10° N visible
30 Sep 5.7 01:49:51 18° NNE 01:49:51 18° NNE 01:51:04 10° NNE visible
30 Sep 5.1 03:25:45 17° NNW 03:26:05 17° NNW 03:29:01 10° NNE visible
01 Oct 5.8 01:48:18 16° NNE 01:48:18 16° NNE 01:49:20 10° NNE visible
01 Oct 5.2 03:24:11 15° NNW 03:24:38 15° NNW 03:27:11 10° NNE visible
02 Oct 5.9 01:46:42 15° NNE 01:46:42 15° NNE 01:47:32 10° NNE visible
02 Oct 5.4 03:22:35 13° NNW 03:23:09 13° NNW 03:25:19 10° N visible
03 Oct 6.0 01:45:04 13° NNE 01:45:04 13° NNE 01:45:42 10° NNE visible
03 Oct 5.5 03:20:57 12° NNW 03:21:41 12° NNW 03:23:24 10° N visible
03 Oct 5.7 05:01:27 10° N 05:02:15 10° N 05:03:04 10° NNE visible
